Weather observations for the past three days for
Iliamna, Iliamna Airport
Imperial (Metric)
Date Time (akdt) Wind (mph) Vis. (mi.) Weather Sky Cond. Temperature (ºF) Relative Humidity Wind Chill (°F) Heat Index (°F) Pressure Precipitation (in)
Air Dwpt 6 hour altimeter (in) sea level (mb) 1 hr 3 hr 6 hr
Max. Min.
15 11:53 SE 5 10.00 Overcast BKN035 OVC045 51.1 46 83% 29.81 1009.5
15 10:53 E 3 10.00 Overcast OVC030 50 46 86% 29.81 1009.5
15 09:53 Calm 10.00 Overcast OVC030 48.9 46 48.9 46.9 90% 29.81 1009.4 0.01
15 08:53 E 3 10.00 Light Rain BKN035 OVC047 48 46 93% 29.8 1009.2
15 07:53 E 3 10.00 Overcast FEW018 BKN036 OVC044 48 46.9 96% 29.79 1009.1
15 06:53 E 3 10.00 Light Rain FEW018 BKN036 OVC044 46.9 45 93% 29.79 1009.0 0.01 0.01
15 05:53 SE 6 0.00 Light Rain BKN024 OVC031 46.9 45 93% 45 29.79 1008.9
15 04:53 SE 6 0.00 Overcast OVC024 46.9 45 93% 45 29.79 1008.8
15 03:53 SE 6 0.00 Light Rain SCT021 OVC039 46.9 45 46.9 46 93% 45 29.78 1008.7 0.02 0.18
15 02:53 S 3 0.00 Rain OVC017 46.9 46 97% 29.78 1008.6 0.01
15 01:53 S 3 0.00 Light Rain BKN006 OVC014 46 46 100% 29.77 1008.4 0.02
15 00:53 S 5 0.00 Light Rain SCT011 BKN024 OVC034 46 46 100% 44 29.76 1007.8 0.06 0.13
14 23:53 SW 6 0.00 Light Rain SCT011 BKN014 OVC021 46.9 46 97% 45 29.74 1007.3 0.03
14 22:53 SE 6 0.00 Overcast FEW009 BKN019 OVC029 46.9 46 97% 45 29.72 1006.7 0.04
14 21:53 S 7 10.00 Light Rain BKN022 OVC029 46.9 46 48 46.9 97% 44 29.7 1006.0 0.13
14 20:53 S 7 5.00 Fog/Mist OVC024 48 45 89% 45 29.69 1005.4
14 19:53 S 7 10.00 Overcast BKN021 OVC027 48 46 93% 45 29.68 1005.1
14 18:53 SE 9 3.00 Fog/Mist OVC022 48 46 93% 44 29.66 1004.4 0.02 0.13
14 17:53 SE 15 4.00 Light Rain Fog/Mist BKN017 OVC022 46.9 45 93% 41 29.64 1004.0 0.06
14 16:53 SE 13 5.00 Light Rain Fog/Mist OVC018 46.9 45 93% 42 29.63 1003.7 0.05
14 15:53 E 9 6.00 Light Rain Fog/Mist FEW018 BKN025 OVC030 46.9 44.1 48 45 90% 43 29.63 1003.4 0.06 0.16
14 14:53 SE 8 10.00 Light Rain OVC035 46 42.1 86% 42 29.62 1003.1 0.04
14 13:53 E 7 10.00 Light Rain OVC035 45 41 86% 42 29.6 1002.6 0.04
14 12:53 E 7 10.00 Light Rain FEW027 BKN036 OVC048 46 41 83% 43 29.59 1002.3 0.01 0.02
14 10:53 S 5 10.00 Light Rain BKN046 BKN055 OVC080 46.9 39 74% 45 29.58 1002.0
14 09:53 S 5 10.00 Overcast FEW041 SCT065 OVC085 46.9 39.9 46.9 42.1 77% 45 29.59 1002.2
14 08:53 E 6 10.00 Overcast FEW017 BKN022 OVC100 46 41 83% 44 29.59 1002.3
14 07:53 Calm 10.00 Light Rain SCT024 BKN037 44.1 41 89% 29.6 1002.4
14 06:53 SW 3 10.00 Overcast FEW021 OVC033 43 39.9 89% 29.6 1002.5
14 05:53 Calm 10.00 Overcast FEW021 OVC033 43 39.9 89% 29.59 1002.3
14 04:53 Vrbl 3 0.00 Overcast SCT017 OVC033 44.1 39.9 85% 29.6 1002.4
14 03:53 S 3 0.00 Overcast BKN024 BKN033 OVC039 44.1 39.9 48 44.1 85% 29.59 1002.2 0.01
14 02:53 Calm 0.00 Overcast SCT025 BKN031 OVC038 44.1 41 89% 29.59 1002.2
14 01:53 SW 5 0.00 Overcast FEW021 OVC034 44.1 39.9 85% 42 29.58 1001.9
14 00:53 SW 8 0.00 Overcast FEW022 OVC038 45 41 86% 41 29.56 1001.2 0.01
13 23:53 SW 7 0.00 Overcast FEW018 SCT024 OVC032 45 41 86% 42 29.54 1000.6
13 22:53 SW 8 G 18 0.00 Light Rain OVC025 46 44.1 93% 42 29.52 999.9 0.01
13 21:53 SW 7 2.00 Light Rain Fog/Mist BKN012 OVC021 48 46.9 52 48 96% 45 29.5 999.1 0.01 0.32
13 20:53 SW 8 2.00 Light Rain Fog/Mist SCT010 BKN016 OVC021 48.9 48 97% 46 29.49 998.7 0.06
13 19:53 SW 7 2.00 Light Rain Fog/Mist FEW009 BKN020 OVC032 50 48.9 96% 48 29.47 998.2 0.08
13 18:53 SE 5 3.00 Fog/Mist SCT027 OVC032 52 50 93% 29.46 997.9 0.01 0.17
13 17:53 SE 3 3.00 Light Rain Fog/Mist FEW007 BKN038 OVC060 52 50 93% 29.47 998.0 0.05
13 16:53 E 3 0.00 Light Rain FEW027 BKN035 OVC043 52 50 93% 29.47 998.2 0.11
13 15:53 Calm 4.00 Light Rain Fog/Mist SCT032 BKN041 OVC060 52 50 54 51.1 93% 29.48 998.4 0.11 0.32
13 13:53 NE 5 10.00 Light Rain OVC040 53.1 50 89% 29.49 998.8 0.07
13 12:53 E 5 10.00 Light Rain OVC049 53.1 48.9 86% 29.5 999.2 0.04 0.04
13 11:53 E 9 10.00 Light Rain OVC044 53.1 46.9 80% 29.52 999.8
13 10:53 E 6 10.00 Overcast OVC048 54 48 80% 29.55 1000.8
13 09:53 E 5 10.00 Overcast OVC046 52 46.9 52 50 83% 29.55 1000.9
13 08:53 E 7 10.00 Overcast OVC038 52 46.9 83% 29.58 1001.6
13 06:53 E 7 10.00 Overcast OVC038 51.1 46.9 86% 29.61 1002.9
13 05:53 E 9 10.00 Overcast OVC035 52 46.9 83% 29.62 1003.1
13 04:53 Calm 0.00 Overcast BKN036 OVC044 50 48 93% 29.64 1003.7
13 03:53 E 5 0.00 Overcast OVC036 50 46.9 52 50 89% 49 29.66 1004.4
13 02:53 E 3 0.00 Overcast OVC035 51.1 48 89% 29.67 1004.9
13 01:53 SE 7 0.00 Overcast BKN033 OVC042 51.1 46.9 86% 29.68 1005.3
13 00:53 SE 12 G 20 0.00 Overcast OVC028 52 48 86% 29.69 1005.4
12 23:53 SE 9 0.00 Overcast OVC031 51.1 48 89% 29.69 1005.6
12 22:53 SE 10 0.00 Overcast OVC030 52 48 86% 29.69 1005.6
12 21:53 SE 14 G 24 0.00 Light Rain OVC031 51.1 48 51.1 50 89% 29.69 1005.6 0.36
12 20:53 E 10 G 20 8.00 Light Rain BKN029 OVC033 50 48 93% 46 29.69 1005.6 0.02
12 19:53 SE 12 G 22 6.00 Light Rain Fog/Mist FEW021 SCT025 OVC037 51.1 48.9 92% 29.69 1005.5 0.04
12 18:53 SE 12 G 25 5.00 Light Rain Fog/Mist FEW021 BKN030 OVC043 51.1 48.9 92% 29.68 1005.4 0.09 0.3
12 17:53 SE 13 G 29 2.00 Light Rain Fog/Mist FEW015 BKN024 OVC033 50 48 93% 46 29.69 1005.5 0.09
12 16:53 E 17 G 26 4.00 Rain Fog/Mist SCT029 OVC034 51.1 48 89% 29.68 1005.2 0.12
12 15:53 E 18 G 33 6.00 Rain Fog/Mist BKN030 OVC035 51.1 46.9 54 51.1 86% 29.68 1005.1 0.08 0.1
12 14:53 E 17 G 29 10.00 Light Rain BKN032 OVC048 52 46.9 83% 29.67 1005.0
12 13:53 SE 17 G 30 10.00 Light Rain BKN028 52 46.9 83% 29.69 1005.4
12 12:53 E 16 G 33 10.00 Light Rain OVC028 52 48 86% 29.69 1005.5 0.02 0.02
Date Time (akdt) Wind (mph) Vis. (mi.) Weather Sky Cond. Air Dwpt Max. Min. Relative Humidity Wind Chill (°F) Heat Index (°F) altimeter (in) sea level (mb) 1 hr 3 hr 6 hr
6 hour
Temperature (ºF) Pressure Precipitation (in)